AFR715 EGLC-LFBZ

Flight info

Callsign AFR715
Flight time 1h 31m
Altitude 25000
Route SOQQA M87 EKNIV M91 LYD UM189 WAFFU/N0425F320 DCT SITET/N0426F330 UN859 SOPIL DCT BALAN DCT LMG DCT UVELI DCT OSMOB DCT VAVIX/N0355F190 DCT MAGEC
Aircraft E190/M-SDE3GILORVW/S

Departure

Time 2026-04-23 06:17
Airport London City Airport (EGLC)

Arrival

Time 2026-04-23 07:49
Airport Biarritz Pays Basque airport (LFBZ)
Time Latitude Longitude Altitude Speed Heading
2026-04-23 05:49 51.50409 0.05073 25 ft 0 kts 329°
2026-04-23 06:10 51.50410 0.05072 25 ft 0 kts 329°
2026-04-23 06:10 51.50412 0.05071 25 ft 0 kts 343°
2026-04-23 06:10 51.50417 0.05071 25 ft 1 kts
2026-04-23 06:10 51.50426 0.05072 25 ft 1 kts
2026-04-23 06:11 51.50440 0.05074 25 ft 2 kts
2026-04-23 06:11 51.50454 0.05066 25 ft 2 kts 326°
2026-04-23 06:11 51.50461 0.05040 25 ft 2 kts 285°
2026-04-23 06:11 51.50462 0.05007 25 ft 3 kts 271°
2026-04-23 06:12 51.50463 0.04969 25 ft 3 kts 271°
2026-04-23 06:12 51.50464 0.04926 25 ft 4 kts 271°
2026-04-23 06:12 51.50467 0.04819 25 ft 5 kts 274°
2026-04-23 06:13 51.50469 0.04758 25 ft 5 kts 272°
2026-04-23 06:13 51.50471 0.04688 25 ft 6 kts 272°
2026-04-23 06:13 51.50473 0.04615 25 ft 7 kts 273°
2026-04-23 06:13 51.50476 0.04534 25 ft 7 kts 274°
2026-04-23 06:14 51.50483 0.04473 25 ft 5 kts 292°
2026-04-23 06:14 51.50488 0.04458 25 ft 0 kts 318°
2026-04-23 06:15 51.50489 0.04456 25 ft 1 kts 319°
2026-04-23 06:15 51.50503 0.04444 25 ft 2 kts 335°
2026-04-23 06:15 51.50523 0.04439 25 ft 3 kts
2026-04-23 06:15 51.50546 0.04448 25 ft 3 kts 24°
2026-04-23 06:16 51.50559 0.04479 25 ft 3 kts 77°
2026-04-23 06:16 51.50556 0.04520 25 ft 4 kts 104°
2026-04-23 06:16 51.50555 0.04535 25 ft 0 kts 93°
2026-04-23 06:17 51.50548 0.04838 25 ft 65 kts 93°
2026-04-23 06:17 51.50510 0.05959 25 ft 132 kts 92°
2026-04-23 06:17 51.50460 0.07575 400 ft 150 kts 89°
2026-04-23 06:17 51.50562 0.09178 1177 ft 147 kts 66°
2026-04-23 06:18 51.51306 0.10447 1664 ft 174 kts 45°
2026-04-23 06:18 51.52267 0.11811 2307 ft 195 kts 45°
2026-04-23 06:18 51.53281 0.13272 2857 ft 204 kts 46°
2026-04-23 06:18 51.54342 0.14795 2942 ft 203 kts 45°
2026-04-23 06:19 51.55306 0.16451 2959 ft 200 kts 70°
2026-04-23 06:19 51.55651 0.18715 3362 ft 223 kts 80°
2026-04-23 06:19 51.55947 0.21266 3857 ft 243 kts 81°
2026-04-23 06:19 51.56264 0.23984 4017 ft 247 kts 75°
2026-04-23 06:20 51.56936 0.26490 3975 ft 242 kts 66°
2026-04-23 06:20 51.57654 0.28918 3980 ft 244 kts 66°
2026-04-23 06:20 51.58417 0.31506 4462 ft 263 kts 66°
2026-04-23 06:20 51.59199 0.34158 5440 ft 264 kts 66°
2026-04-23 06:21 51.59977 0.36796 6499 ft 262 kts 66°
2026-04-23 06:21 51.60511 0.39515 7425 ft 261 kts 90°
2026-04-23 06:21 51.60313 0.42439 8285 ft 265 kts 98°
2026-04-23 06:21 51.60027 0.45362 9108 ft 270 kts 98°
2026-04-23 06:22 51.59725 0.48399 9929 ft 275 kts 98°
2026-04-23 06:22 51.59421 0.51431 10773 ft 279 kts 98°
2026-04-23 06:22 51.59081 0.54536 11552 ft 286 kts 105°
2026-04-23 06:22 51.58009 0.57312 12216 ft 302 kts 136°
2026-04-23 06:23 51.56102 0.58893 12844 ft 321 kts 165°
2026-04-23 06:23 51.53816 0.59359 13579 ft 331 kts 169°
2026-04-23 06:23 51.51517 0.59857 14396 ft 336 kts 168°
2026-04-23 06:23 51.49184 0.60412 15263 ft 340 kts 167°
2026-04-23 06:24 51.46843 0.60989 16109 ft 344 kts 167°
2026-04-23 06:24 51.44467 0.61584 16908 ft 348 kts 167°
2026-04-23 06:24 51.42032 0.62196 17669 ft 354 kts 167°
2026-04-23 06:24 51.39638 0.63091 18403 ft 355 kts 158°
2026-04-23 06:25 51.37264 0.64343 19126 ft 360 kts 158°
2026-04-23 06:25 51.34874 0.65604 19818 ft 366 kts 159°
2026-04-23 06:25 51.32420 0.66895 20497 ft 371 kts 159°
2026-04-23 06:25 51.29905 0.68217 21140 ft 377 kts 159°
2026-04-23 06:26 51.27363 0.69552 21789 ft 382 kts 159°
2026-04-23 06:26 51.24827 0.70904 22427 ft 386 kts 156°
2026-04-23 06:26 51.22296 0.72601 23052 ft 390 kts 154°
2026-04-23 06:26 51.19788 0.74325 23648 ft 396 kts 154°
2026-04-23 06:27 51.17229 0.76080 24242 ft 401 kts 154°
2026-04-23 06:27 51.14630 0.77860 24815 ft 405 kts 154°
2026-04-23 06:27 51.12067 0.79612 25322 ft 405 kts 154°
2026-04-23 06:27 51.09412 0.81428 25394 ft 422 kts 154°
2026-04-23 06:28 51.06678 0.83293 25415 ft 436 kts 154°
2026-04-23 06:28 51.03836 0.85138 25393 ft 443 kts 161°
2026-04-23 06:28 51.00783 0.85671 25414 ft 445 kts 184°
2026-04-23 06:28 50.97803 0.84509 25414 ft 447 kts 205°
2026-04-23 06:29 50.95209 0.81819 25428 ft 444 kts 221°
2026-04-23 06:29 50.92815 0.78728 25391 ft 444 kts 221°
2026-04-23 06:29 50.90422 0.75665 25387 ft 441 kts 221°
2026-04-23 06:29 50.88025 0.72605 25381 ft 444 kts 221°
2026-04-23 06:30 50.85617 0.69539 25383 ft 441 kts 221°
2026-04-23 06:30 50.83237 0.66513 25370 ft 441 kts 221°
2026-04-23 06:30 50.80822 0.63445 25376 ft 443 kts 221°
2026-04-23 06:30 50.78450 0.60438 25374 ft 440 kts 221°
2026-04-23 06:31 50.76044 0.57393 25367 ft 441 kts 221°
2026-04-23 06:31 50.73658 0.54375 25361 ft 443 kts 221°
2026-04-23 06:31 50.71251 0.51336 25369 ft 441 kts 221°
2026-04-23 06:31 50.68866 0.48328 25369 ft 442 kts 221°
2026-04-23 06:32 50.66439 0.45273 25363 ft 443 kts 221°
2026-04-23 06:32 50.64043 0.42258 25363 ft 442 kts 221°
2026-04-23 06:32 50.61651 0.39254 25360 ft 444 kts 221°
2026-04-23 06:32 50.59235 0.36229 25357 ft 442 kts 220°
2026-04-23 06:33 50.56584 0.33785 25368 ft 446 kts 207°
2026-04-23 06:33 50.53789 0.31722 25367 ft 446 kts 206°
2026-04-23 06:33 50.50960 0.29651 25362 ft 445 kts 206°
2026-04-23 06:33 50.48153 0.27600 25357 ft 445 kts 206°
2026-04-23 06:34 50.45330 0.25541 25355 ft 445 kts 206°
2026-04-23 06:34 50.42489 0.23471 25557 ft 457 kts 206°
2026-04-23 06:34 50.39584 0.21360 26169 ft 458 kts 207°
2026-04-23 06:34 50.36711 0.19273 26865 ft 457 kts 207°
2026-04-23 06:35 50.33829 0.17182 27502 ft 458 kts 207°
2026-04-23 06:35 50.30923 0.15077 28009 ft 461 kts 207°
2026-04-23 06:35 50.28019 0.12975 28487 ft 465 kts 207°
2026-04-23 06:35 50.25029 0.10816 28914 ft 470 kts 207°
2026-04-23 06:36 50.22082 0.08689 29362 ft 474 kts 208°
2026-04-23 06:36 50.19064 0.06515 29839 ft 477 kts 208°
2026-04-23 06:36 50.16047 0.04366 30319 ft 480 kts 205°
2026-04-23 06:36 50.12849 0.02708 30759 ft 486 kts 196°
2026-04-23 06:37 50.09489 0.01833 31189 ft 492 kts 187°
2026-04-23 06:37 50.06058 0.01605 31619 ft 495 kts 179°
2026-04-23 06:37 50.02640 0.02148 31976 ft 500 kts 170°
2026-04-23 06:37 49.99286 0.03484 32294 ft 497 kts 161°
2026-04-23 06:38 49.92688 0.06761 32324 ft 500 kts 165°
2026-04-23 06:38 49.85984 0.09442 32316 ft 499 kts 166°
2026-04-23 06:39 49.79208 0.12094 32310 ft 499 kts 166°
2026-04-23 06:39 49.72512 0.14704 32313 ft 499 kts 166°
2026-04-23 06:40 49.65784 0.17357 32319 ft 499 kts 165°
2026-04-23 06:40 49.59069 0.20066 32312 ft 498 kts 166°
2026-04-23 06:41 49.52390 0.22751 32314 ft 498 kts 166°
2026-04-23 06:41 49.45737 0.25767 32315 ft 498 kts 159°
2026-04-23 06:42 49.39094 0.28921 32324 ft 500 kts 165°
2026-04-23 06:42 49.32391 0.31667 32312 ft 497 kts 166°
2026-04-23 06:43 49.25702 0.34373 32316 ft 498 kts 165°
2026-04-23 06:43 49.18982 0.37083 32309 ft 499 kts 166°
2026-04-23 06:44 49.12293 0.39773 32308 ft 498 kts 165°
2026-04-23 06:44 49.05609 0.42452 32293 ft 497 kts 166°
2026-04-23 06:45 48.98914 0.45129 32288 ft 498 kts 165°
2026-04-23 06:45 48.92195 0.47809 32285 ft 498 kts 166°
2026-04-23 06:46 48.85529 0.50459 32272 ft 499 kts 166°
2026-04-23 06:46 48.78809 0.53123 32275 ft 498 kts 166°
2026-04-23 06:47 48.72059 0.55775 32268 ft 500 kts 166°
2026-04-23 06:47 48.65343 0.58405 32266 ft 499 kts 166°
2026-04-23 06:48 48.58628 0.61028 32268 ft 499 kts 166°
2026-04-23 06:48 48.51892 0.63655 32265 ft 500 kts 166°
2026-04-23 06:49 48.45222 0.66374 32260 ft 499 kts 166°
2026-04-23 06:49 48.38485 0.69110 32260 ft 500 kts 166°
2026-04-23 06:50 48.31759 0.71834 32258 ft 501 kts 166°
2026-04-23 06:50 48.25075 0.74532 32257 ft 501 kts 166°
2026-04-23 06:51 48.18322 0.77194 32249 ft 500 kts 167°
2026-04-23 06:51 48.11601 0.79835 32253 ft 500 kts 167°
2026-04-23 06:52 48.04879 0.82470 32252 ft 503 kts 167°
2026-04-23 06:52 47.98137 0.85106 32252 ft 502 kts 167°
2026-04-23 06:53 47.91388 0.87738 32243 ft 501 kts 167°
2026-04-23 06:53 47.84656 0.90356 32229 ft 501 kts 167°
2026-04-23 06:54 47.77891 0.92979 32232 ft 500 kts 167°
2026-04-23 06:54 47.71135 0.95592 32226 ft 501 kts 167°
2026-04-23 06:55 47.64433 0.98178 32219 ft 501 kts 167°
2026-04-23 06:55 47.57672 1.00779 32220 ft 502 kts 167°
2026-04-23 06:56 47.50907 1.03374 32218 ft 503 kts 167°
2026-04-23 06:56 47.44097 1.05867 32221 ft 503 kts 172°
2026-04-23 06:57 47.37209 1.06321 32231 ft 499 kts 184°
2026-04-23 06:57 47.30247 1.06146 32217 ft 497 kts 184°
2026-04-23 06:58 47.23351 1.05984 32212 ft 496 kts 184°
2026-04-23 06:58 47.16462 1.05822 32215 ft 497 kts 184°
2026-04-23 06:59 47.09513 1.05660 32221 ft 498 kts 184°
2026-04-23 06:59 47.02616 1.05500 32210 ft 497 kts 184°
2026-04-23 07:00 46.95740 1.05207 32216 ft 496 kts 185°
2026-04-23 07:00 46.88835 1.04911 32194 ft 494 kts 185°
2026-04-23 07:01 46.81963 1.04618 32189 ft 496 kts 185°
2026-04-23 07:01 46.75069 1.04325 32190 ft 495 kts 185°
2026-04-23 07:02 46.68166 1.04032 32187 ft 495 kts 185°
2026-04-23 07:02 46.61272 1.03740 32187 ft 497 kts 185°
2026-04-23 07:03 46.54370 1.03449 32187 ft 494 kts 185°
2026-04-23 07:03 46.47471 1.03283 32179 ft 496 kts 184°
2026-04-23 07:04 46.40581 1.03209 32177 ft 495 kts 184°
2026-04-23 07:04 46.33667 1.03132 32177 ft 495 kts 184°
2026-04-23 07:05 46.26764 1.03055 32168 ft 495 kts 184°
2026-04-23 07:05 46.19862 1.02978 32167 ft 495 kts 184°
2026-04-23 07:06 46.12978 1.02902 32171 ft 495 kts 184°
2026-04-23 07:06 46.06130 1.02826 32160 ft 494 kts 184°
2026-04-23 07:07 45.99229 1.02752 32260 ft 481 kts 184°
2026-04-23 07:07 45.95984 1.02718 32061 ft 462 kts 184°
2026-04-23 07:07 45.92837 1.02684 32027 ft 440 kts 184°
2026-04-23 07:08 45.89819 1.02651 31960 ft 422 kts 185°
2026-04-23 07:08 45.86890 1.02596 31870 ft 432 kts 187°
2026-04-23 07:08 45.83857 1.01993 31847 ft 439 kts 198°
2026-04-23 07:08 45.80933 1.00633 31901 ft 445 kts 207°
2026-04-23 07:09 45.75673 0.96025 32107 ft 450 kts 227°
2026-04-23 07:09 45.70947 0.89863 32114 ft 465 kts 226°
2026-04-23 07:10 45.66008 0.83913 32105 ft 464 kts 225°
2026-04-23 07:10 45.61043 0.77995 32103 ft 464 kts 225°
2026-04-23 07:11 45.56068 0.72081 32104 ft 465 kts 225°
2026-04-23 07:12 45.48638 0.63279 32137 ft 463 kts 225°
2026-04-23 07:12 45.43680 0.57422 32132 ft 462 kts 225°
2026-04-23 07:13 45.38708 0.51562 32131 ft 463 kts 225°
2026-04-23 07:13 45.33755 0.45738 32130 ft 463 kts 224°
2026-04-23 07:14 45.28792 0.39916 32125 ft 462 kts 224°
2026-04-23 07:14 45.23855 0.34139 32125 ft 463 kts 224°
2026-04-23 07:15 45.18883 0.28334 32124 ft 463 kts 224°
2026-04-23 07:15 45.13898 0.22527 32121 ft 462 kts 223°
2026-04-23 07:16 45.08917 0.16737 32122 ft 462 kts 223°
2026-04-23 07:16 45.06473 0.13905 32110 ft 449 kts 223°
2026-04-23 07:16 45.04069 0.11120 31964 ft 434 kts 224°
2026-04-23 07:16 45.01783 0.08473 31285 ft 427 kts 224°
2026-04-23 07:17 44.99478 0.05805 30154 ft 431 kts 223°
2026-04-23 07:17 44.97157 0.03123 28914 ft 436 kts 223°
2026-04-23 07:17 44.94839 0.00450 28032 ft 432 kts 223°
2026-04-23 07:17 44.92503 -0.02241 27300 ft 424 kts 223°
2026-04-23 07:18 44.90250 -0.04834 26596 ft 417 kts 223°
2026-04-23 07:18 44.88047 -0.07368 25843 ft 411 kts 223°
2026-04-23 07:18 44.85823 -0.09924 25032 ft 407 kts 223°
2026-04-23 07:18 44.83666 -0.12399 24242 ft 403 kts 223°
2026-04-23 07:19 44.81492 -0.14892 23450 ft 398 kts 222°
2026-04-23 07:19 44.79378 -0.17314 22682 ft 394 kts 222°
2026-04-23 07:19 44.77261 -0.19737 21922 ft 389 kts 222°
2026-04-23 07:19 44.75186 -0.22109 21167 ft 385 kts 222°
2026-04-23 07:20 44.73103 -0.24489 20400 ft 382 kts 221°
2026-04-23 07:20 44.71061 -0.26818 19658 ft 378 kts 221°
2026-04-23 07:20 44.69024 -0.29141 18981 ft 378 kts 221°
2026-04-23 07:20 44.67003 -0.31443 18678 ft 373 kts 221°
2026-04-23 07:21 44.64980 -0.33739 18357 ft 371 kts 220°
2026-04-23 07:21 44.62846 -0.35830 18043 ft 371 kts 216°
2026-04-23 07:21 44.60749 -0.37843 17732 ft 369 kts 216°
2026-04-23 07:21 44.58633 -0.39878 17416 ft 366 kts 216°
2026-04-23 07:22 44.56538 -0.41894 17094 ft 357 kts 216°
2026-04-23 07:22 44.54507 -0.43847 16757 ft 344 kts 216°
2026-04-23 07:22 44.52569 -0.45709 16434 ft 339 kts 216°
2026-04-23 07:22 44.50624 -0.47578 16120 ft 338 kts 216°
2026-04-23 07:23 44.48661 -0.49462 15807 ft 338 kts 216°
2026-04-23 07:23 44.46734 -0.51309 15496 ft 336 kts 216°
2026-04-23 07:23 44.44795 -0.53166 15180 ft 334 kts 216°
2026-04-23 07:23 44.42913 -0.54968 14853 ft 322 kts 216°
2026-04-23 07:24 44.41087 -0.56714 14519 ft 312 kts 216°
2026-04-23 07:24 44.39333 -0.58390 14196 ft 306 kts 216°
2026-04-23 07:24 44.37567 -0.60077 13881 ft 306 kts 216°
2026-04-23 07:24 44.35807 -0.61757 13575 ft 307 kts 216°
2026-04-23 07:25 44.34047 -0.63435 13266 ft 306 kts 216°
2026-04-23 07:25 44.32287 -0.65112 12953 ft 304 kts 215°
2026-04-23 07:25 44.30527 -0.66788 12635 ft 302 kts 215°
2026-04-23 07:25 44.28809 -0.68423 12254 ft 301 kts 214°
2026-04-23 07:26 44.27081 -0.70072 11864 ft 298 kts 215°
2026-04-23 07:26 44.25373 -0.71706 11479 ft 295 kts 214°
2026-04-23 07:26 44.23678 -0.73329 11089 ft 293 kts 214°
2026-04-23 07:26 44.21997 -0.74935 10697 ft 291 kts 214°
2026-04-23 07:27 44.20340 -0.76520 10313 ft 289 kts 214°
2026-04-23 07:27 44.18680 -0.78105 9927 ft 288 kts 214°
2026-04-23 07:27 44.17033 -0.79676 9535 ft 283 kts 214°
2026-04-23 07:27 44.15419 -0.81215 9142 ft 278 kts 214°
2026-04-23 07:28 44.13828 -0.82731 8750 ft 274 kts 214°
2026-04-23 07:28 44.12257 -0.84227 8356 ft 272 kts 214°
2026-04-23 07:28 44.10697 -0.85712 7967 ft 271 kts 214°
2026-04-23 07:28 44.09141 -0.87191 7594 ft 269 kts 214°
2026-04-23 07:29 44.07606 -0.88651 7522 ft 264 kts 214°
2026-04-23 07:29 44.06068 -0.90112 7516 ft 268 kts 214°
2026-04-23 07:29 44.04520 -0.91580 7513 ft 269 kts 214°
2026-04-23 07:29 44.02964 -0.93056 7516 ft 274 kts 214°
2026-04-23 07:30 44.01387 -0.94551 7504 ft 274 kts 214°
2026-04-23 07:30 43.99809 -0.96047 7508 ft 275 kts 214°
2026-04-23 07:30 43.98217 -0.97554 7253 ft 276 kts 214°
2026-04-23 07:30 43.96634 -0.99051 6958 ft 273 kts 214°
2026-04-23 07:31 43.95056 -1.00543 6657 ft 269 kts 214°
2026-04-23 07:31 43.93518 -1.01997 6327 ft 266 kts 214°
2026-04-23 07:31 43.92017 -1.03414 6053 ft 260 kts 214°
2026-04-23 07:31 43.90521 -1.04827 5765 ft 258 kts 213°
2026-04-23 07:32 43.89047 -1.06217 5423 ft 257 kts 213°
2026-04-23 07:32 43.87568 -1.07611 5219 ft 255 kts 213°
2026-04-23 07:32 43.86103 -1.08991 5051 ft 250 kts 213°
2026-04-23 07:32 43.84672 -1.10339 4891 ft 246 kts 212°
2026-04-23 07:33 43.83239 -1.11687 4727 ft 245 kts 212°
2026-04-23 07:33 43.81843 -1.13000 4552 ft 244 kts 212°
2026-04-23 07:33 43.80426 -1.14331 4387 ft 244 kts 212°
2026-04-23 07:33 43.79030 -1.15642 4220 ft 244 kts 212°
2026-04-23 07:34 43.77611 -1.16974 4054 ft 242 kts 211°
2026-04-23 07:34 43.76221 -1.18278 3898 ft 241 kts 211°
2026-04-23 07:34 43.74941 -1.19748 3728 ft 246 kts 234°
2026-04-23 07:34 43.74231 -1.21935 3596 ft 246 kts 247°
2026-04-23 07:35 43.73651 -1.24136 3349 ft 241 kts 247°
2026-04-23 07:35 43.73089 -1.26274 3084 ft 238 kts 248°
2026-04-23 07:35 43.72529 -1.28407 2927 ft 235 kts 248°
2026-04-23 07:35 43.71963 -1.30563 2666 ft 237 kts 248°
2026-04-23 07:36 43.71408 -1.32680 2526 ft 235 kts 248°
2026-04-23 07:36 43.70861 -1.34769 2492 ft 223 kts 248°
2026-04-23 07:36 43.70343 -1.36743 2488 ft 215 kts 248°
2026-04-23 07:36 43.69844 -1.38644 2475 ft 201 kts 248°
2026-04-23 07:37 43.69382 -1.40402 2483 ft 194 kts 247°
2026-04-23 07:37 43.68892 -1.42076 2491 ft 178 kts 239°
2026-04-23 07:37 43.68304 -1.43575 2493 ft 184 kts 238°
2026-04-23 07:37 43.67677 -1.45162 2548 ft 187 kts 238°
2026-04-23 07:38 43.67067 -1.46711 2338 ft 182 kts 238°
2026-04-23 07:38 43.66447 -1.48274 2048 ft 191 kts 239°
2026-04-23 07:38 43.65803 -1.49902 2027 ft 193 kts 239°
2026-04-23 07:38 43.65163 -1.51520 2010 ft 193 kts 239°
2026-04-23 07:39 43.64518 -1.53150 2007 ft 192 kts 239°
2026-04-23 07:39 43.63879 -1.54762 2007 ft 192 kts 239°
2026-04-23 07:39 43.63232 -1.56397 2012 ft 192 kts 239°
2026-04-23 07:39 43.62585 -1.58015 2012 ft 193 kts 236°
2026-04-23 07:40 43.61810 -1.59528 2013 ft 191 kts 231°
2026-04-23 07:40 43.61020 -1.61007 2012 ft 190 kts 231°
2026-04-23 07:40 43.60233 -1.62479 2008 ft 190 kts 231°
2026-04-23 07:40 43.59446 -1.63949 2003 ft 191 kts 231°
2026-04-23 07:41 43.58664 -1.65410 2009 ft 190 kts 230°
2026-04-23 07:41 43.57877 -1.66878 2005 ft 190 kts 230°
2026-04-23 07:41 43.57084 -1.68357 2012 ft 190 kts 230°
2026-04-23 07:41 43.56302 -1.69817 2097 ft 188 kts 230°
2026-04-23 07:42 43.55532 -1.71252 2003 ft 177 kts 230°
2026-04-23 07:42 43.54843 -1.72538 1965 ft 158 kts 230°
2026-04-23 07:42 43.54100 -1.73574 1972 ft 149 kts 200°
2026-04-23 07:42 43.53101 -1.73795 2028 ft 146 kts 177°
2026-04-23 07:43 43.52078 -1.73810 2013 ft 146 kts 176°
2026-04-23 07:43 43.51079 -1.73814 1985 ft 139 kts 176°
2026-04-23 07:43 43.50107 -1.73809 1995 ft 137 kts 175°
2026-04-23 07:43 43.49164 -1.73799 2006 ft 137 kts 175°
2026-04-23 07:44 43.48201 -1.73785 2008 ft 138 kts 175°
2026-04-23 07:44 43.47289 -1.73501 1989 ft 134 kts 141°
2026-04-23 07:44 43.46823 -1.72436 2002 ft 134 kts 99°
2026-04-23 07:44 43.46767 -1.71175 1985 ft 124 kts 94°
2026-04-23 07:45 43.46742 -1.70029 1968 ft 119 kts 93°
2026-04-23 07:45 43.46727 -1.68865 2005 ft 123 kts 93°
2026-04-23 07:45 43.46719 -1.67683 2005 ft 125 kts 92°
2026-04-23 07:45 43.46720 -1.66478 1933 ft 126 kts 91°
2026-04-23 07:46 43.46734 -1.65266 1819 ft 126 kts 90°
2026-04-23 07:46 43.46760 -1.64108 1640 ft 118 kts 91°
2026-04-23 07:46 43.46766 -1.62992 1275 ft 114 kts 91°
2026-04-23 07:46 43.46773 -1.61955 1001 ft 107 kts 91°
2026-04-23 07:47 43.46765 -1.60854 508 ft 116 kts 90°
2026-04-23 07:47 43.46795 -1.59695 684 ft 126 kts 88°
2026-04-23 07:47 43.46794 -1.58523 672 ft 120 kts 93°
2026-04-23 07:47 43.46794 -1.57395 529 ft 117 kts 89°
2026-04-23 07:48 43.46803 -1.56255 489 ft 119 kts 89°
2026-04-23 07:48 43.46809 -1.55096 474 ft 122 kts 89°
2026-04-23 07:48 43.46817 -1.53926 319 ft 121 kts 89°
2026-04-23 07:48 43.46838 -1.52856 242 ft 85 kts 89°
2026-04-23 07:49 43.46840 -1.52501 231 ft 0 kts 88°
2026-04-23 07:49 43.46840 -1.52492 231 ft 14 kts 89°
2026-04-23 07:49 43.46850 -1.52206 226 ft 21 kts 54°
2026-04-23 07:49 43.46977 -1.52185 228 ft 16 kts 330°
2026-04-23 07:50 43.46995 -1.52229 228 ft 0 kts 278°
2026-04-23 07:50 43.46997 -1.52245 228 ft 5 kts 271°
2026-04-23 07:50 43.46995 -1.52323 228 ft 11 kts 268°
2026-04-23 07:50 43.46995 -1.52439 230 ft 11 kts 270°
2026-04-23 07:51 43.46996 -1.52546 232 ft 10 kts 270°
2026-04-23 07:51 43.46995 -1.52639 234 ft 8 kts 270°
2026-04-23 07:51 43.46995 -1.52717 236 ft 7 kts 267°
2026-04-23 07:51 43.46993 -1.52781 237 ft 5 kts 268°
2026-04-23 07:52 43.46995 -1.52830 238 ft 4 kts 281°
2026-04-23 07:52 43.47010 -1.52868 238 ft 0 kts 328°